W0DXV Weather Reports


Display with metric or nautical units.
time (UTC)temp
F
wind
direction
speed
MPH
gust
MPH
rain 1hr
in
rain 24hr
in
rain mn
in
humidity
%
barometer
mb
20260901044009 73 189 0.0 1.0 0.00 0.00 0.00 99 1015.6
20260901043505 73 189 0.0 0.0 0.00 0.00 0.00 99 1015.5
20260901043000 73 189 0.0 0.0 0.00 0.00 0.00 99 1015.4
20260901042459 73 189 0.0 0.0 0.00 0.00 0.00 99 1015.5
20260901041955 73 189 0.0 0.0 0.00 0.00 0.00 99 1015.3
20260901041450 73 189 0.0 0.0 0.00 0.00 0.00 99 1015.6
20260901040949 73 189 0.0 0.0 0.00 0.00 0.00 99 1015.5
20260901040444 73 189 0.0 0.0 0.00 0.00 0.00 99 1015.5
20260901035943 73 189 0.0 0.0 0.00 0.00 0.00 99 1015.5
20260901035442 73 189 0.0 0.0 0.00 0.00 0.00 99 1015.5
20260901034941 73 189 0.0 0.0 0.00 0.00 0.00 98 1015.4
20260901034435 73 189 0.0 0.0 0.00 0.00 0.00 98 1015.3
20260901033930 74 189 0.0 0.0 0.00 0.00 0.00 98 1015.3
20260901033429 74 189 0.0 0.0 0.00 0.00 0.00 98 1015.3
20260901032927 74 189 0.0 0.0 0.00 0.00 0.00 98 1015.2
20260901032422 74 189 0.0 0.0 0.00 0.00 0.00 98 1015.3
20260901031917 74 189 0.0 0.0 0.00 0.00 0.00 98 1015.4
20260901031413 74 189 0.0 0.0 0.00 0.00 0.00 98 1015.4
20260901030913 74 189 0.0 0.0 0.00 0.00 0.00 98 1015.4
20260901030408 74 189 0.0 0.0 0.00 0.00 0.00 98 1015.6
20260901025907 74 189 0.0 0.0 0.00 0.00 0.00 98 1015.6
20260901025402 74 189 0.0 0.0 0.00 0.00 0.00 98 1015.7
20260901024856 75 189 0.0 0.0 0.00 0.00 0.00 98 1015.6
20260901024355 75 189 0.0 0.0 0.00 0.00 0.00 98 1015.6
20260901023849 75 190 0.0 0.0 0.00 0.00 0.00 98 1015.7
20260901023344 75 190 0.0 0.0 0.00 0.00 0.00 98 1015.3
20260901022839 75 190 0.0 0.0 0.00 0.00 0.00 98 1015.5
20260901022335 75 190 0.0 0.0 0.00 0.00 0.00 98 1015.4
20260901021830 75 190 0.0 0.0 0.00 0.00 0.00 97 1015.5
20260901021326 75 190 0.0 0.0 0.00 0.00 0.00 97 1015.2
20260901020820 75 190 0.0 0.0 0.00 0.00 0.00 97 1015.3
20260901020315 75 190 0.0 0.0 0.00 0.00 0.00 97 1015.3
20260901015810 75 190 0.0 0.0 0.00 0.00 0.00 97 1015.4
20260901015307 75 190 0.0 0.0 0.00 0.00 0.00 97 1015.3
20260901014805 76 190 0.0 0.0 0.00 0.00 0.00 96 1015.4
20260901014301 76 189 0.0 0.0 0.00 0.00 0.00 96 1015.3
20260901013757 76 189 0.0 0.0 0.00 0.00 0.00 96 1015.2
20260901013252 76 189 0.0 0.0 0.00 0.00 0.00 96 1015.2
20260901012748 76 189 0.0 0.0 0.00 0.00 0.00 96 1015.1
20260901012248 77 189 0.0 0.0 0.00 0.00 0.00 95 1015.1
20260901011743 77 189 0.0 0.0 0.00 0.00 0.00 95 1014.9
20260901011239 77 189 0.0 0.0 0.00 0.00 0.00 95 1014.8
20260901010732 77 189 0.0 0.0 0.00 0.00 0.00 94 1014.7
20260901010227 77 189 0.0 0.0 0.00 0.00 0.00 94 1014.7
20260901005726 77 189 0.0 1.0 0.00 0.00 0.00 94 1014.6
20260901005221 77 191 1.0 1.0 0.00 0.00 0.00 94 1014.6
20260901004720 77 192 0.0 0.0 0.00 0.00 0.00 94 1014.7
20260901004210 78 192 0.0 0.0 0.00 0.00 0.00 94 1014.5
20260901003709 78 192 0.0 0.0 0.00 0.00 0.00 94 1014.6
20260901003209 78 192 0.0 0.0 0.00 0.00 0.00 93 1014.5
20260901002703 78 192 0.0 0.0 0.00 0.00 0.00 92 1014.4
20260901002158 79 189 1.0 1.0 0.00 0.00 0.00 92 1014.2
20260901001654 79 201 0.0 0.0 0.00 0.00 0.00 92 1014.3
20260901001148 79 203 0.0 0.0 0.00 0.00 0.00 91 1014.6
20260901000638 80 203 0.0 0.0 0.00 0.00 0.00 91 1014.5
20260901000133 80 203 0.0 0.0 0.00 0.00 0.00 90 1014.3
20260831235626 80 203 0.0 0.0 0.00 0.00 0.00 90 1014.4
20260831235122 81 203 0.0 0.0 0.00 0.00 0.00 89 1014.2
20260831234616 81 203 0.0 0.0 0.00 0.00 0.00 88 1014.2
20260831234112 82 203 0.0 0.0 0.00 0.00 0.00 87 1014.3
20260831233607 82 202 0.0 0.0 0.00 0.00 0.00 85 1014.3
20260831233102 83 202 0.0 0.0 0.00 0.00 0.00 84 1014.0
20260831232557 83 202 0.0 0.0 0.00 0.00 0.00 83 1014.1
20260831232053 84 202 0.0 0.0 0.00 0.00 0.00 82 1014.1
20260831231549 84 202 0.0 1.0 0.00 0.00 0.00 79 1014.2
20260831231050 85 202 0.0 0.0 0.00 0.00 0.00 79 1014.3
20260831230545 85 202 0.0 0.0 0.00 0.00 0.00 77 1014.4
20260831230040 86 203 0.0 0.0 0.00 0.00 0.00 75 1014.3
20260831225535 86 203 0.0 0.0 0.00 0.00 0.00 74 1014.1
20260831225030 86 203 0.0 0.0 0.00 0.00 0.00 74 1014.3
20260831224525 86 203 0.0 0.0 0.00 0.00 0.00 72 1014.1
20260831224021 86 204 0.0 1.0 0.00 0.00 0.00 73 1014.4
20260831223515 87 204 0.0 1.0 0.00 0.00 0.00 72 1014.6
20260831223012 87 204 0.0 0.0 0.00 0.00 0.00 70 1014.4
20260831222508 87 208 0.0 0.0 0.00 0.00 0.00 70 1014.5
20260831222007 87 208 0.0 0.0 0.00 0.00 0.00 70 1014.3
20260831221503 87 208 0.0 1.0 0.00 0.00 0.00 69 1014.5
20260831220958 87 209 0.0 0.0 0.00 0.00 0.00 68 1014.5
20260831220454 87 215 0.0 0.0 0.00 0.00 0.00 68 1014.5
20260831215949 87 224 0.0 0.0 0.00 0.00 0.00 68 1014.6
20260831215444 88 248 0.0 0.0 0.00 0.00 0.00 69 1014.4
20260831214940 88 241 0.0 0.0 0.00 0.00 0.00 69 1014.5
20260831214438 89 213 0.0 0.0 0.00 0.00 0.00 64 1014.6
20260831213933 89 198 1.0 1.0 0.00 0.00 0.00 65 1014.7
20260831213430 89 192 1.0 1.0 0.00 0.00 0.00 63 1014.6
20260831212929 90 207 0.0 1.0 0.00 0.00 0.00 63 1014.7
20260831212426 90 230 0.0 0.0 0.00 0.00 0.00 61 1014.7
20260831211925 89 217 0.0 0.0 0.00 0.00 0.00 63 1014.6
20260831211420 90 230 0.0 1.0 0.00 0.00 0.00 64 1014.7
20260831210914 90 223 0.0 1.0 0.00 0.00 0.00 66 1014.4
20260831210409 91 216 1.0 1.0 0.00 0.00 0.00 63 1014.6
20260831205905 91 221 0.0 1.0 0.00 0.00 0.00 62 1014.7
20260831205401 91 213 0.0 1.0 0.00 0.00 0.00 60 1014.6
20260831204855 91 213 1.0 1.0 0.00 0.00 0.00 61 1014.8
20260831204354 93 215 0.0 1.0 0.00 0.00 0.00 57 1014.8
20260831203854 94 232 0.0 0.0 0.00 0.00 0.00 53 1014.8
20260831203348 93 231 0.0 0.0 0.00 0.00 0.00 56 1014.7
20260831202846 93 220 0.0 0.0 0.00 0.00 0.00 55 1014.7
20260831202342 92 244 1.0 1.0 0.00 0.00 0.00 59 1014.9
20260831201836 94 191 1.0 1.0 0.00 0.00 0.00 56 1014.9
20260831201335 93 228 0.0 1.0 0.00 0.00 0.00 56 1014.9
20260831200831 93 198 0.0 1.0 0.00 0.00 0.00 60 1015.1
20260831200326 95 57 1.0 1.0 0.00 0.00 0.00 54 1014.9
20260831195821 94 15 0.0 1.0 0.00 0.00 0.00 51 1015.2
20260831195317 96 248 0.0 1.0 0.00 0.00 0.00 46 1015.3
20260831194813 96 241 1.0 1.0 0.00 0.00 0.00 48 1015.3
20260831194308 94 214 1.0 1.0 0.00 0.00 0.00 50 1015.4
20260831193806 93 220 2.0 2.0 0.00 0.00 0.00 50 1015.5
20260831193302 92 226 1.0 2.0 0.00 0.00 0.00 54 1015.4
20260831192757 92 275 3.0 3.0 0.00 0.00 0.00 54 1015.3
20260831192252 92 256 2.0 2.0 0.00 0.00 0.00 54 1015.3
20260831191748 91 256 0.0 1.0 0.00 0.00 0.00 54 1015.5
20260831191244 91 271 1.0 2.0 0.00 0.00 0.00 56 1015.3
20260831190738 91 278 2.0 2.0 0.00 0.00 0.00 55 1015.4
20260831190233 94 261 3.0 3.0 0.00 0.00 0.00 52 1015.6
20260831185728 95 206 3.0 3.0 0.00 0.00 0.00 52 1015.7
20260831185223 95 229 3.0 3.0 0.00 0.00 0.00 52 1015.6
20260831184722 94 225 0.0 1.0 0.00 0.00 0.00 56 1015.7
20260831184218 93 216 1.0 1.0 0.00 0.00 0.00 55 1015.8
20260831183717 93 285 2.0 2.0 0.00 0.00 0.00 56 1015.8
20260831183212 93 227 2.0 2.0 0.00 0.00 0.00 55 1015.9
20260831182711 92 249 1.0 1.0 0.00 0.00 0.00 55 1016.0
20260831182206 93 17 2.0 3.0 0.00 0.00 0.00 55 1016.1
20260831181701 92 144 1.0 1.0 0.00 0.00 0.00 53 1016.2
20260831181155 93 237 2.0 2.0 0.00 0.00 0.00 54 1016.1
20260831180651 93 180 2.0 2.0 0.00 0.00 0.00 55 1016.0
20260831180145 92 224 0.0 1.0 0.00 0.00 0.00 57 1016.2
20260831175645 93 214 1.0 1.0 0.00 0.00 0.00 56 1016.3
20260831175142 92 219 1.0 1.0 0.00 0.00 0.00 57 1016.5
20260831174637 92 206 1.0 1.0 0.00 0.00 0.00 59 1016.7
20260831174132 91 236 1.0 1.0 0.00 0.00 0.00 60 1016.3
20260831173630 90 203 1.0 2.0 0.00 0.00 0.00 61 1016.6
20260831173126 90 279 3.0 5.0 0.00 0.00 0.00 61 1016.4
20260831172621 90 254 2.0 2.0 0.00 0.00 0.00 61 1016.7
20260831172120 90 188 1.0 1.0 0.00 0.00 0.00 64 1016.4
20260831171615 89 234 0.0 0.0 0.00 0.00 0.00 61 1016.8
20260831171113 91 242 1.0 1.0 0.00 0.00 0.00 61 1016.5
20260831170609 91 252 0.0 0.0 0.00 0.00 0.00 60 1016.7
20260831170106 89 229 0.0 0.0 0.00 0.00 0.00 63 1016.6
20260831165601 89 269 3.0 3.0 0.00 0.00 0.00 65 1016.6
20260831165058 89 226 1.0 1.0 0.00 0.00 0.00 66 1016.7
20260831164554 89 85 2.0 3.0 0.00 0.00 0.00 66 1016.7
20260831164049 90 204 1.0 1.0 0.00 0.00 0.00 64 1016.7
20260831163544 89 271 1.0 2.0 0.00 0.00 0.00 64 1017.1
20260831163040 89 254 2.0 2.0 0.00 0.00 0.00 66 1016.8
20260831162538 88 238 0.0 1.0 0.00 0.00 0.00 68 1017.1
20260831162036 89 262 2.0 2.0 0.00 0.00 0.00 67 1017.0
20260831161533 88 232 0.0 0.0 0.00 0.00 0.00 66 1017.3
20260831161029 88 109 1.0 2.0 0.00 0.00 0.00 69 1017.1
20260831160528 88 263 3.0 3.0 0.00 0.00 0.00 66 1017.1
20260831160024 88 244 0.0 1.0 0.00 0.00 0.00 68 1017.2
20260831155518 88 217 1.0 1.0 0.00 0.00 0.00 68 1017.3
20260831155013 87 231 0.0 1.0 0.00 0.00 0.00 72 1017.1
20260831154509 88 234 1.0 1.0 0.00 0.00 0.00 69 1017.2
20260831154008 87 86 1.0 1.0 0.00 0.00 0.00 73 1017.2
20260831153503 87 209 1.0 1.0 0.00 0.00 0.00 73 1017.2
20260831153000 86 256 0.0 0.0 0.00 0.00 0.00 72 1017.0
20260831152455 86 248 0.0 0.0 0.00 0.00 0.00 73 1017.1
20260831151950 86 94 1.0 2.0 0.00 0.00 0.00 75 1017.2
20260831151449 85 72 2.0 2.0 0.00 0.00 0.00 74 1017.2
20260831150945 85 187 1.0 1.0 0.00 0.00 0.00 77 1017.3
20260831150440 86 230 1.0 1.0 0.00 0.00 0.00 76 1017.4
20260831145940 85 242 1.0 1.0 0.00 0.00 0.00 75 1017.3
20260831145436 84 259 1.0 1.0 0.00 0.00 0.00 75 1017.4
20260831144931 84 265 4.0 5.0 0.00 0.00 0.00 76 1017.3
20260831144427 84 292 1.0 1.0 0.00 0.00 0.00 77 1017.4
20260831143922 84 215 1.0 1.0 0.00 0.00 0.00 77 1017.4
20260831143416 83 324 1.0 1.0 0.00 0.00 0.00 79 1017.3
20260831142913 82 224 1.0 1.0 0.00 0.00 0.00 80 1017.3
20260831142408 82 225 1.0 1.0 0.00 0.00 0.00 81 1017.3
20260831141908 81 221 1.0 1.0 0.00 0.00 0.00 82 1017.3
20260831141356 80 238 0.0 1.0 0.00 0.00 0.00 84 1017.2
20260831140852 79 248 1.0 2.0 0.00 0.00 0.00 84 1017.4
20260831140346 79 255 1.0 1.0 0.00 0.00 0.00 85 1017.3
20260831135845 78 254 0.0 0.0 0.00 0.00 0.00 86 1017.2
20260831135340 78 187 1.0 1.0 0.00 0.00 0.00 86 1017.3
20260831134835 78 216 1.0 1.0 0.00 0.00 0.00 86 1017.2
20260831134332 78 253 0.0 1.0 0.00 0.00 0.00 86 1017.4
20260831133830 77 259 0.0 0.0 0.00 0.00 0.00 87 1017.3
20260831133330 77 229 1.0 1.0 0.00 0.00 0.00 88 1017.3
20260831132825 76 223 0.0 1.0 0.00 0.00 0.00 89 1017.6
20260831132320 76 228 0.0 0.0 0.00 0.00 0.00 89 1017.4
20260831131815 75 248 0.0 1.0 0.00 0.00 0.00 91 1017.3
20260831131311 75 241 0.0 0.0 0.00 0.00 0.00 91 1017.4
20260831130805 75 242 0.0 0.0 0.00 0.00 0.00 90 1017.4
20260831130301 75 242 0.0 0.0 0.00 0.00 0.00 90 1017.3
20260831125800 75 243 0.0 0.0 0.00 0.00 0.00 90 1017.5
20260831125256 75 244 1.0 1.0 0.00 0.00 0.00 89 1017.2
20260831124750 74 253 0.0 0.0 0.00 0.00 0.00 89 1017.3
20260831124246 74 254 0.0 0.0 0.00 0.00 0.00 90 1017.4
20260831123741 73 254 0.0 0.0 0.00 0.00 0.00 91 1017.3
20260831123239 73 235 0.0 0.0 0.00 0.00 0.00 93 1017.3
20260831122734 72 235 0.0 0.0 0.00 0.00 0.00 94 1017.2
20260831122230 71 235 0.0 0.0 0.00 0.00 0.00 96 1017.3
20260831121728 71 235 0.0 0.0 0.00 0.00 0.00 97 1017.3
20260831121226 71 235 0.0 0.0 0.00 0.00 0.00 99 1016.9
20260831120721 71 235 0.0 0.0 0.00 0.00 0.00 99 1017.3
20260831120215 69 234 0.0 0.0 0.00 0.00 0.00 99 1017.1
20260831115711 69 234 0.0 0.0 0.00 0.00 0.00 99 1017.2
20260831115207 67 234 0.0 0.0 0.00 0.00 0.00 99 1017.1
20260831114706 66 234 0.0 0.0 0.00 0.00 0.00 99 1017.0
20260831114205 66 234 0.0 0.0 0.00 0.00 0.00 99 1017.2
20260831113701 66 234 0.0 0.0 0.00 0.00 0.00 99 1017.1
20260831113156 66 235 0.0 0.0 0.00 0.00 0.00 99 1017.1
20260831112655 65 235 0.0 0.0 0.00 0.00 0.00 99 1017.1
20260831112150 65 235 0.0 0.0 0.00 0.00 0.00 99 1017.2
20260831111646 65 235 0.0 0.0 0.00 0.00 0.00 99 1017.0
20260831111142 65 235 0.0 0.0 0.00 0.00 0.00 99 1017.0
20260831110637 65 235 0.0 0.0 0.00 0.00 0.00 99 1016.9
20260831110132 65 235 0.0 0.0 0.00 0.00 0.00 99 1016.9
20260831105631 65 235 0.0 0.0 0.00 0.00 0.00 99 1017.0
20260831105126 65 235 0.0 0.0 0.00 0.00 0.00 99 1017.0
20260831104622 65 235 0.0 0.0 0.00 0.00 0.00 99 1016.9
20260831104118 65 235 0.0 0.0 0.00 0.00 0.00 99 1017.0
20260831103613 65 235 0.0 0.0 0.00 0.00 0.00 99 1016.9
20260831103108 65 235 0.0 0.0 0.00 0.00 0.00 99 1016.8
20260831102603 65 235 0.0 0.0 0.00 0.00 0.00 99 1016.9
20260831102058 65 235 0.0 0.0 0.00 0.00 0.00 99 1016.8
20260831101557 65 235 0.0 0.0 0.00 0.00 0.00 99 1016.8
20260831101054 65 235 0.0 0.0 0.00 0.00 0.00 99 1016.8
20260831100549 65 235 0.0 0.0 0.00 0.00 0.00 99 1016.7
20260831100046 65 235 0.0 0.0 0.00 0.00 0.00 99 1016.8
20260831095543 65 235 0.0 0.0 0.00 0.00 0.00 99 1016.6
20260831095039 66 235 0.0 0.0 0.00 0.00 0.00 99 1016.6
20260831094535 66 235 0.0 0.0 0.00 0.00 0.00 99 1016.6
20260831094030 66 235 0.0 0.0 0.00 0.00 0.00 99 1016.7
20260831093525 65 235 0.0 0.0 0.00 0.00 0.00 99 1016.3
20260831093022 65 235 0.0 0.0 0.00 0.00 0.00 99 1016.4
20260831092517 65 235 0.0 0.0 0.00 0.00 0.00 99 1016.5
20260831092013 65 235 0.0 0.0 0.00 0.00 0.00 99 1016.3
20260831091507 65 235 0.0 0.0 0.00 0.00 0.00 99 1016.5
20260831091003 65 235 0.0 0.0 0.00 0.00 0.00 99 1016.4
20260831090458 66 235 0.0 0.0 0.00 0.00 0.00 99 1016.5
20260831085954 66 235 0.0 0.0 0.00 0.00 0.00 99 1016.4
20260831085449 66 235 0.0 0.0 0.00 0.00 0.00 99 1016.7
20260831084949 66 235 0.0 0.0 0.00 0.00 0.00 99 1016.3
20260831084445 66 234 0.0 0.0 0.00 0.00 0.00 99 1016.7
20260831083942 66 235 0.0 0.0 0.00 0.00 0.00 99 1016.6
20260831083436 66 234 0.0 0.0 0.00 0.00 0.00 99 1016.6
20260831082935 66 234 0.0 0.0 0.00 0.00 0.00 99 1016.4
20260831082430 66 235 0.0 0.0 0.00 0.00 0.00 99 1016.4
20260831081925 66 235 0.0 0.0 0.00 0.00 0.00 99 1016.4
20260831081421 66 235 0.0 0.0 0.00 0.00 0.00 99 1016.5
20260831080917 66 235 0.0 0.0 0.00 0.00 0.00 99 1016.5
20260831080412 66 234 0.0 0.0 0.00 0.00 0.00 99 1016.2
20260831075907 66 234 0.0 0.0 0.00 0.00 0.00 99 1016.3
20260831075403 66 235 0.0 0.0 0.00 0.00 0.00 99 1016.3
20260831074857 66 235 0.0 0.0 0.00 0.00 0.00 99 1016.4
20260831074356 66 235 0.0 0.0 0.00 0.00 0.00 99 1016.4
20260831073852 66 235 0.0 0.0 0.00 0.00 0.00 99 1016.4
20260831073351 66 235 0.0 0.0 0.00 0.00 0.00 99 1016.3
20260831072846 66 235 0.0 0.0 0.00 0.00 0.00 99 1016.5
20260831072342 67 234 0.0 0.0 0.00 0.00 0.00 99 1016.4
20260831071838 67 234 0.0 0.0 0.00 0.00 0.00 99 1016.4
20260831071336 67 234 0.0 0.0 0.00 0.00 0.00 99 1016.4
20260831070832 67 234 0.0 0.0 0.00 0.00 0.00 99 1016.6
20260831070331 67 234 0.0 0.0 0.00 0.00 0.00 99 1016.4
20260831065830 67 234 0.0 0.0 0.00 0.00 0.00 99 1016.5
20260831065328 67 234 0.0 0.0 0.00 0.00 0.00 99 1016.8
20260831064823 67 234 0.0 0.0 0.00 0.00 0.00 99 1016.8
20260831064319 67 234 0.0 0.0 0.00 0.00 0.00 99 1016.7
20260831063815 67 234 0.0 0.0 0.00 0.00 0.00 99 1016.7
20260831063310 67 234 0.0 0.0 0.00 0.00 0.00 99 1016.5
20260831062809 67 234 0.0 0.0 0.00 0.00 0.00 99 1016.7
20260831062306 67 234 0.0 0.0 0.00 0.00 0.00 99 1016.7
20260831061803 67 234 0.0 0.0 0.00 0.00 0.00 99 1016.6
20260831061257 67 234 0.0 0.0 0.00 0.00 0.00 99 1016.5
20260831060754 67 234 0.0 0.0 0.00 0.00 0.00 99 1016.6
20260831060253 67 234 0.0 0.0 0.00 0.00 0.00 99 1016.6
20260831055753 67 234 0.0 0.0 0.00 0.00 0.00 99 1016.6
20260831055248 68 234 0.0 0.0 0.00 0.00 0.00 99 1016.7
20260831054743 68 234 0.0 0.0 0.00 0.00 0.00 99 1016.9
20260831054238 68 234 0.0 0.0 0.00 0.00 0.00 99 1016.9
20260831053737 68 234 0.0 0.0 0.00 0.00 0.00 99 1016.7
20260831053235 68 234 0.0 0.0 0.00 0.00 0.00 99 1016.7
20260831052730 68 234 0.0 0.0 0.00 0.00 0.00 99 1016.5
20260831052229 68 213 0.0 1.0 0.00 0.00 0.00 99 1016.5
20260831051727 68 213 0.0 0.0 0.00 0.00 0.00 99 1016.7
20260831051226 68 213 0.0 0.0 0.00 0.00 0.00 99 1016.8
20260831050721 68 213 0.0 0.0 0.00 0.00 0.00 99 1016.7
20260831050220 68 213 0.0 0.0 0.00 0.00 0.00 99 1016.7
20260831045714 68 213 0.0 0.0 0.00 0.00 0.00 99 1016.6
20260831045210 68 213 0.0 0.0 0.00 0.00 0.00 99 1016.6
20260831044704 68 213 0.0 0.0 0.00 0.00 0.00 99 1016.7